Vertical_Velocity
0 4 -0 -2 0 0 -1 5 0 1 -0 1 -0 3 -1 -1 0 2 -0 1 -1 1 2 1 1 2 2 0 0 0 1 -1 -3 -2 -1 -4 -5 -6 -4 -1 -0 0 -2
-1 1 -0 3 -2 1 3 -2 1 3 4 1 1 0 -1 -2 -1 -0 -1 -3 2 2 3 6 1 2 2 3 -1 -2 -1 -4 -1 0 -2 -3 -5 -6 -4 -4 -3 0 0
4 1 2 0 -3 -2 2 -1 4 -2 -1 1 1 0 2 -0 -2 -4 -3 -5 -2 3 -2 1 3 -0 -2 -0 -1 -1 5 1 -1 -1 1 1 -2 -2 -6 -10 -9 -5 -1
1 3 -4 -1 -3 0 -1 -2 -1 1 -2 -3 0 0 -1 -3 -1 0 -1 -0 -2 -1 -2 -1 -0 1 -1 -1 -1 -3 -4 1 0 -2 6 1 -0 -0 -5 -5 -9 -11 -6
4 -2 -3 0 -4 -1 -0 1 0 1 -0 4 1 -1 -1 0 0 -1 -3 -3 -3 -1 -1 -0 -0 -0 1 -0 -2 -1 2 1 0 7 -4 -1 -1 -4 -2 -1 -4 -0 -6
-0 0 -1 -1 2 2 3 3 1 2 3 2 2 1 -0 -1 -2 -1 0 -0 -1 -3 -2 -0 -1 -1 -2 -1 -2 -5 -5 -4 3 -6 -4 -3 -3 -2 -3 -4 -3 -3 -2
-1 3 -1 3 2 1 1 -1 0 4 1 2 -1 1 -1 -2 1 1 1 2 1 1 1 -0 -1 -4 -5 -3 -1 -2 -5 1 -0 6 3 1 2 -2 -5 1 -2 -1 1
2 1 2 2 1 -1 -1 0 1 -1 -3 -2 1 -2 -1 -0 4 2 -2 -6 -8 -5 -3 -2 1 1 0 0 -2 -2 -3 -5 -5 -8 -8 -3 -2 -2 -4 1 0 -3 -2
5 4 3 -1 -0 1 1 -1 1 0 -1 -2 -1 0 -0 -0 -1 -1 -2 -2 -2 -2 -3 -3 -3 1 1 0 1 2 -2 -5 -5 -4 -2 -1 -0 -2 -3 -5 -1 -1 -4
2 3 2 -0 -2 -7 -10 -2 -1 -2 -2 -2 -2 -2 -1 -2 -3 -3 -4 1 -1 -4 -3 -5 -3 -0 -3 1 -3 0 -1 -2 -3 -1 -4 -3 -1 -1 -2 -6 1 -0 -0
0 -1 -1 1 1 0 3 -7 -2 -3 -2 0 0 -1 -0 2 1 1 -1 -5 -3 -2 0 -1 1 0 -2 -5 -5 -2 -0 3 3 1 -1 2 -4 0 -2 -4 -4 -1 1
1 1 0 -2 -3 -5 -5 -4 1 -1 -0 -1 -3 -2 -3 -1 -0 2 1 -1 -1 -2 -5 -7 -4 -1 -3 -1 -3 -3 -1 -2 -2 -4 -1 -5 -3 -3 -4 -5 -7 -5 -3
1 0 -1 -3 -4 -6 -5 5 1 -4 -4 -2 -2 -2 -0 -1 -2 1 1 1 0 -2 2 -2 -0 -3 -2 -3 1 3 3 -2 2 -1 1 -1 -6 -8 -5 -3 -3 -4 -2
2 -2 -5 -5 -15 2 -1 -5 4 4 -1 -2 -3 -3 -4 -1 1 1 -0 1 -3 -0 -2 6 -4 -3 2 1 -1 0 1 -1 0 -1 -2 -3 -4 -6 -5 -3 -3 -2 -5
-7 -7 -5 -8 -5 -7 4 2 3 -1 2 3 -1 -1 -0 3 1 0 -1 1 4 1 -0 -5 -3 -2 -2 -1 -2 -7 -6 2 -3 -3 -3 -2 0 -3 3 -4 -2 -0 -2
-2 7 -3 -3 -7 1 1 -2 -1 1 0 -1 0 1 -1 -3 0 -0 2 -3 2 1 -2 5 3 -1 0 -1 -3 3 -4 1 -4 -3 -4 -1 1 2 -1 0 -2 -3 -3
0 3 2 -2 -3 1 1 -1 1 -1 -3 -4 -4 -2 -2 2 -1 -2 -1 1 -0 2 -3 -2 2 -0 -4 1 0 0 -1 -3 -3 -1 -2 -2 -1 -1 -1 2 -2 -1 1
2 -0 3 2 -0 0 -4 -3 -5 -3 -4 -4 -4 0 -1 -3 -3 -4 2 0 0 1 1 -3 -2 -3 -1 3 -0 -2 -2 -0 -2 -1 -1 -0 0 -0 2 2 0 -4 -2
1 1 -1 -0 -0 -12 -2 -1 -1 0 1 -3 -7 -3 1 1 1 0 2 3 3 2 -0 -2 -5 -1 -1 4 -5 -1 -5 -4 1 -2 -2 -0 0 1 -1 -2 -2 -3 -3
4 6 1 2 -17 2 -1 -4 -5 -2 2 1 -1 1 3 2 2 2 2 0 1 -0 -0 -1 -1 -1 2 0 -1 -7 -11 0 -9 2 3 3 -2 -4 -2 -0 -1 -1 -1
6 3 8 -11 -1 3 1 1 1 -1 1 3 1 2 -2 2 1 1 -1 1 1 -1 -1 -1 -1 -0 1 -3 -3 -2 -7 -6 -4 -2 -6 -2 -7 -1 0 -1 -1 1 -1
9 9 -11 -11 -1 1 0 -0 4 1 3 1 -2 1 3 -1 3 -1 2 1 -0 -0 1 -2 1 0 -0 -3 -2 -3 -2 -5 -16 -1 -3 -19 7 -3 -1 2 3 -1 -2
7 -17 -5 -6 -4 -1 4 2 1 1 1 1 3 -5 -7 -0 0 -1 1 -1 0 2 1 -0 -0 3 -2 -1 -2 -2 -2 3 1 -3 4 -21 4 -6 -0 -1 3 -1 -3
-17 0 -7 3 -1 0 2 -0 2 2 2 1 -2 3 -3 -0 -0 0 0 -1 1 1 2 3 1 1 -0 -3 0 1 1 -2 -2 2 6 -17 3 -4 -2 3 2 4 6
2 -8 -1 -2 -0 4 -0 -2 -2 -0 2 2 1 -1 -1 -2 2 0 -1 -0 0 3 1 2 1 0 1 -0 2 -1 -1 -1 -11 -3 3 -4 -2 -11 -1 -2 -2 3 3
-4 0 -1 -1 -1 -5 -2 -2 -2 0 2 1 -0 -0 -0 -1 -1 -0 -2 -0 -1 2 0 2 2 2 0 -1 1 4 1 0 -1 -11 -0 -2 -4 7 -12 -3 1 4 -2
Height
1568 1568 1570 1570 1572 1572 1571 1572 1571 1569 1569 1569 1568 1567 1564 1564 1559 1559 1560 1559 1559 1557 1556 1556 1555 1554 1552 1550 1550 1550 1549 1548 1548 1546 1545 1543 1543 1543 1544 1542 1541 1540 1538
1569 1569 1569 1569 1571 1571 1572 1571 1571 1568 1568 1566 1567 1565 1563 1561 1558 1557 1556 1558 1557 1556 1555 1554 1554 1554 1553 1550 1548 1549 1547 1547 1546 1544 1543 1541 1539 1539 1540 1539 1538 1537 1536
1568 1569 1568 1568 1569 1571 1570 1570 1568 1568 1567 1567 1564 1562 1561 1559 1557 1556 1555 1555 1554 1553 1551 1552 1552 1551 1551 1549 1548 1548 1547 1545 1544 1543 1542 1539 1537 1535 1533 1533 1534 1533 1532
1567 1566 1567 1567 1569 1570 1568 1569 1567 1566 1566 1563 1563 1559 1558 1556 1555 1553 1553 1553 1552 1552 1551 1551 1550 1550 1548 1548 1547 1546 1545 1544 1542 1541 1540 1536 1534 1531 1529 1528 1527 1527 1526
1565 1565 1566 1568 1568 1567 1565 1564 1563 1563 1563 1560 1558 1556 1555 1555 1554 1552 1551 1551 1551 1551 1550 1549 1548 1547 1546 1544 1543 1543 1543 1542 1540 1538 1536 1534 1532 1530 1527 1524 1522 1521 1519
1564 1565 1565 1565 1565 1562 1562 1561 1561 1560 1559 1556 1555 1554 1553 1553 1552 1551 1550 1549 1549 1549 1548 1547 1546 1544 1543 1541 1540 1540 1539 1538 1537 1534 1532 1530 1528 1525 1523 1520 1518 1517 1515
1563 1563 1563 1562 1561 1560 1559 1558 1558 1557 1554 1553 1552 1552 1552 1551 1550 1550 1549 1549 1548 1547 1546 1545 1543 1541 1540 1539 1537 1536 1536 1535 1534 1532 1529 1527 1524 1522 1520 1517 1515 1513 1511
1561 1561 1560 1560 1559 1558 1557 1555 1554 1552 1551 1551 1550 1550 1550 1551 1549 1547 1547 1547 1547 1546 1545 1543 1541 1539 1538 1536 1534 1533 1531 1530 1529 1528 1525 1523 1521 1519 1516 1514 1511 1509 1507
1559 1558 1557 1557 1556 1555 1554 1553 1552 1550 1549 1549 1549 1551 1549 1548 1547 1546 1544 1543 1543 1543 1542 1540 1539 1536 1535 1534 1532 1530 1528 1527 1524 1523 1520 1518 1516 1514 1511 1510 1506 1504 1501
1556 1555 1554 1553 1552 1552 1554 1554 1551 1549 1548 1547 1548 1548 1548 1547 1545 1543 1542 1541 1540 1539 1538 1537 1535 1534 1532 1530 1527 1526 1523 1521 1519 1516 1515 1512 1511 1508 1506 1503 1500 1497 1495
1553 1552 1552 1551 1550 1550 1550 1549 1549 1547 1547 1545 1544 1543 1544 1542 1541 1540 1536 1536 1536 1536 1535 1534 1533 1530 1528 1526 1523 1520 1518 1516 1513 1510 1508 1506 1504 1502 1499 1496 1492 1488 1487
1549 1549 1548 1548 1548 1548 1549 1545 1544 1543 1543 1542 1541 1540 1539 1539 1538 1536 1534 1533 1531 1531 1530 1530 1528 1526 1522 1520 1518 1515 1513 1510 1507 1505 1502 1499 1497 1493 1491 1487 1484 1480 1478
1546 1545 1546 1546 1546 1546 1546 1544 1540 1540 1539 1538 1539 1538 1537 1535 1534 1532 1531 1529 1526 1525 1524 1523 1523 1519 1516 1514 1512 1509 1506 1503 1499 1497 1494 1491 1488 1484 1481 1477 1475 1473 1471
1542 1543 1543 1542 1542 1543 1541 1541 1539 1537 1537 1536 1536 1535 1534 1532 1530 1529 1528 1526 1523 1520 1519 1517 1515 1514 1511 1508 1505 1502 1498 1494 1489 1488 1485 1482 1479 1476 1473 1470 1467 1466 1464
1538 1538 1537 1534 1539 1541 1538 1537 1537 1536 1534 1533 1532 1531 1529 1528 1527 1526 1524 1523 1520 1516 1512 1510 1510 1508 1503 1499 1495 1491 1487 1484 1479 1477 1475 1473 1472 1470 1467 1463 1461 1458 1456
1532 1532 1532 1532 1535 1535 1534 1533 1532 1532 1531 1530 1528 1527 1526 1526 1524 1523 1521 1519 1517 1513 1509 1506 1502 1499 1495 1491 1488 1483 1479 1475 1472 1470 1468 1466 1465 1462 1460 1457 1453 1451 1449
1529 1528 1529 1529 1530 1530 1529 1528 1527 1527 1526 1525 1524 1522 1521 1521 1520 1519 1516 1515 1512 1509 1505 1501 1496 1494 1489 1485 1481 1476 1473 1469 1467 1465 1463 1461 1458 1454 1451 1449 1446 1443 1441
1524 1525 1526 1525 1526 1526 1525 1524 1523 1522 1521 1521 1520 1519 1517 1516 1515 1513 1511 1509 1506 1503 1500 1494 1490 1488 1485 1479 1475 1470 1467 1465 1462 1459 1456 1453 1450 1447 1444 1441 1439 1436 1434
1519 1520 1521 1521 1520 1521 1521 1520 1519 1517 1516 1515 1515 1514 1513 1511 1509 1507 1505 1503 1501 1497 1494 1490 1485 1483 1478 1474 1468 1465 1462 1459 1456 1453 1449 1445 1441 1437 1435 1433 1431 1429 1427
1514 1516 1517 1517 1518 1518 1516 1516 1515 1514 1512 1510 1509 1509 1508 1507 1505 1503 1501 1498 1495 1492 1489 1486 1481 1477 1473 1468 1463 1459 1454 1453 1448 1446 1443 1441 1436 1432 1428 1426 1425 1423 1420
1511 1512 1513 1513 1514 1514 1513 1511 1509 1509 1508 1506 1504 1504 1503 1503 1501 1498 1496 1493 1489 1487 1484 1481 1477 1472 1467 1463 1459 1455 1452 1447 1444 1442 1438 1435 1432 1427 1423 1420 1419 1417 1414
1509 1508 1508 1508 1509 1508 1506 1504 1503 1502 1502 1501 1499 1498 1497 1495 1494 1492 1490 1487 1484 1482 1480 1476 1472 1467 1463 1459 1456 1452 1449 1445 1440 1439 1435 1430 1428 1423 1420 1416 1414 1412 1409
1503 1506 1505 1503 1502 1500 1499 1497 1496 1495 1494 1494 1494 1493 1491 1490 1489 1487 1484 1481 1479 1478 1475 1471 1467 1463 1459 1456 1452 1448 1446 1443 1439 1436 1433 1426 1424 1419 1416 1412 1409 1407 1405
1499 1499 1498 1498 1495 1493 1492 1491 1490 1488 1488 1488 1487 1486 1484 1484 1482 1480 1478 1476 1475 1473 1471 1467 1463 1460 1456 1453 1450 1446 1443 1439 1435 1432 1430 1424 1420 1415 1412 1409 1406 1403 1402
1496 1494 1493 1492 1490 1487 1485 1484 1483 1482 1482 1482 1481 1480 1478 1477 1476 1474 1472 1471 1469 1468 1465 1462 1459 1456 1454 1451 1447 1442 1439 1435 1429 1426 1426 1422 1416 1412 1408 1405 1404 1402 1400
1489 1489 1487 1485 1483 1480 1478 1477 1477 1477 1477 1477 1476 1474 1473 1472 1470 1468 1466 1465 1463 1462 1459 1457 1455 1453 1450 1447 1444 1440 1436 1432 1429 1423 1422 1419 1414 1411 1405 1402 1402 1401 1398